SCP
0 0 0 0 0 0 0 0 0 0 0 0 0 0 0 0 0 0 0 0 0 0 0 0 0 0 0 0 0 0 0 0 0 0 0 0 0 0
0 0 0 0 0 0 0 0 0 0 0 0 0 0 0 0 0 0 0 0 0 0 0 0 0 0 0 0 0 0 0 0 0 0 0 0 0 0
0 0 0 0 0 0 0 0 0 0 0 0 0 0 0 0 0 0 0 0 0 0 0 0 0 0 0 0 0 0 0 0 0 0 0 0 0 0
0 0 0 0 0 0 0 0 0 0 0 0 0 0 0 0 0 0 0 0 0 0 0 0 0 0 0 0 0 0 0 0 0 0 0 0 0 0
0 0 0 0 0 0 0 0 0 0 0 0 0 0 0 0 0 0 0 0 0 0 0 0 0 0 0 0 0 0 0 0 0 0 0 0 0 0
0 0 0 0 0 0 0 0 0 0 0 0 0 0 0 0 0 0 0 0 0 0 0 0 0 0 0 0 0 0 0 0 0 0 0 0 0 0
0 0 0 0 0 0 0 0 0 0 0 0 0 0 0 0 0 0 0 0 0 0 0 0 0 0 0 0 0 0 0 0 0 0 0 0 0 0
0 0 0 0 0 0 0 0 0 0 0 0 0 0 0 0 0 0 0 0 0 0 0 0 0 0 0 0 0 0 0 0 0 0 0 0 0 0
0 0 0 0 0 0 0 0 0 0 0 0 0 0 0 0 0 0 0 0 0 0 0 0 0 0 0 0 0 0 0 0 0 0 0 0 0 0
0 0 0 0 0 0 0 0 0 0 0 0 0 0 0 0 0 0 0 0 0 0 0 0 0 0 0 0 0 0 0 0 0 0 0 0 0 0
0 0 0 0 0 0 0 0 0 0 0 0 0 0 0 0 0 0 0 0 0 0 0 0 0 0 0 0 0 0 0 0 0 0 0 0 0 0
0 0 0 0 0 0 0 0 0 0 0 0 0 0 0 0 0 0 0 0 0 0 0 0 0 0 0 0 0 0 0 0 0 0 0 0 0 0
0 0 0 0 0 0 0 0 0 0 0 0 0 0 0 0 0 0 0 0 0 0 0 0 0 0 0 0 0 0 0 0 0 0 0 0 0 0
0 0 0 0 0 0 0 0 0 0 0 0 0 0 0 0 0 0 0 0 0 0 0 0 0 0 0 0 0 0 0 0 0 0 0 0 0 0
0 0 0 0 0 0 0 0 0 0 0 0 0 0 0 0 0 0 0 0 0 0 0 0 0 0 0 0 0 0 0 0 0 0 0 0 0 0
0 0 0 0 0 0 0 0 0 0 0 0 0 0 0 0 0 0 0 0 0 0 0 0 0 0 0 0 0 0 0 0 0 0 0 0 0 0
0 0 0 0 0 0 0 0 0 0 0 0 0 0 0 0 0 0 0 0 0 0 0 0 0 0 0 0 0 0 0 0 0 0 0 0 0 0
0 0 0 0 0 0 0 0 0 0 0 0 0 0 0 0 0 0 0 0 0 0 0 0 0 0 0 0 0 0 0 0 0 0 0 0 0 0
0 0 0 0 0 0 0 0 0 0 0 0 0 0 0 0 0 0 0 0 0 0 0 0 0 0 0 0 0 0 0 0 0 0 0 0 0 0
0 0 0 0 0 0 0 0 0 0 0 0 0 0 0 0 0 0 0 0 0 0 0 0 0 0 0 0 0 0 0 0 0 0 0 0 0 0
0 0 0 0 0 0 0 0 0 0 0 0 0 0 0 0 0 0 0 0 0 0 0 0 0 0 0 0 0 0 0 0 0 0 0 0 0 0
0 0 0 0 0 0 0 0 0 0 0 0 0 0 0 0 0 0 0 0 0 0 0 0 0 0 0 0 0 0 0 0 0 0 0 0 0 0
0 0 0 0 0 0 0 0 0 0 0 0 0 0 0 0 0 0 0 0 0 0 0 0 0 0 0 0 0 0 0 0 0 0 0 0 0 0
Wind_Speed
5 5 5 3 4 3 3 3 4 4 3 3 2 2 2 1 2 3 2 4 4 4 4 4 4 4 5 5 5 5 6 6 7 7 7 8 9 9
3 4 4 4 3 3 4 4 4 5 4 2 2 2 1 2 2 3 3 5 6 6 5 5 4 4 4 4 4 5 5 6 7 7 8 9 10 9
5 5 5 4 4 4 4 4 4 4 4 3 2 1 3 3 2 3 4 4 4 8 6 5 5 5 5 5 5 5 5 5 6 7 8 9 9 9
5 5 5 4 5 5 4 5 4 4 5 4 3 3 4 4 3 4 4 3 3 6 7 7 6 6 6 6 6 6 6 6 6 6 6 7 7 8
5 5 5 5 5 4 5 5 4 4 4 4 5 3 3 4 4 5 4 3 5 5 8 9 8 8 7 7 7 7 7 7 6 6 6 7 7 7
6 6 6 6 5 5 5 6 5 5 4 5 4 4 4 4 4 4 4 4 4 4 3 4 7 9 9 9 9 8 8 7 7 7 7 7 7 7
6 6 6 5 3 4 4 4 4 5 5 5 5 4 4 3 4 4 4 4 4 4 4 4 5 6 7 10 11 10 8 8 8 8 8 8 8 8
6 6 6 7 6 6 5 5 5 6 6 5 5 5 5 5 4 4 5 5 5 3 5 5 4 5 5 5 7 9 10 9 9 9 9 9 9 9
6 5 6 5 6 6 6 7 7 7 7 7 7 7 6 5 5 6 5 6 5 3 4 6 5 5 5 3 8 9 9 10 9 9 9 10 10 10
7 7 7 6 6 6 6 7 7 7 8 8 7 7 6 5 5 6 6 6 7 6 5 6 5 5 5 3 8 9 9 10 10 10 10 10 10 11
8 7 8 7 4 5 7 7 7 6 6 7 6 5 4 4 5 5 6 7 7 5 5 6 6 5 5 5 6 11 10 10 10 10 10 10 10 10
6 7 7 6 5 6 8 8 8 7 6 6 6 8 8 8 9 9 8 8 7 5 3 5 6 5 5 4 4 5 7 9 11 11 11 10 9 8
5 5 5 7 6 7 8 8 7 7 7 7 7 7 7 7 8 9 8 8 8 7 3 4 6 5 6 5 4 4 4 4 6 7 10 11 11 10
6 5 3 6 7 8 8 7 6 7 7 7 7 6 6 6 6 6 7 8 8 8 6 6 6 6 6 7 5 4 4 4 5 5 5 8 10 12
5 4 3 5 7 8 10 9 8 8 7 7 7 7 6 5 5 5 6 7 9 9 8 8 8 7 7 8 7 5 5 5 5 5 4 4 5 5
5 4 6 8 9 7 7 9 8 7 7 7 7 6 5 5 6 6 6 6 7 7 8 9 9 9 8 8 7 7 6 5 4 4 4 4 4 5
4 5 5 6 7 7 7 7 7 7 8 7 6 6 6 6 6 6 6 6 7 7 6 6 8 8 9 9 8 7 6 6 5 4 5 5 4 4
6 6 6 6 7 7 7 7 7 7 7 7 7 6 6 6 6 6 6 7 7 7 6 5 5 6 7 7 8 8 7 6 5 4 5 5 5 3
7 7 7 6 7 7 7 7 7 7 6 7 7 6 6 6 6 6 6 6 7 7 6 5 5 6 7 7 5 6 6 5 5 4 4 5 5 4
7 7 7 6 6 6 6 6 6 5 6 6 6 6 6 6 6 6 6 7 6 6 6 5 6 6 7 6 5 4 6 6 4 5 4 4 4 2
7 7 6 6 6 5 5 5 5 5 6 6 6 6 6 6 6 6 6 6 6 6 6 6 4 5 5 5 5 5 3 5 5 4 5 5 4 4
5 5 5 5 5 5 5 5 5 5 5 6 6 5 6 6 6 7 6 6 6 6 7 5 4 5 6 6 6 5 4 3 5 5 4 5 4 4
4 5 4 4 4 4 4 5 5 5 4 4 4 5 5 6 5 5 6 6 6 6 6 5 4 5 6 6 5 5 5 5 4 4 4 6 7 6
Wind_Direction
213 210 235 230 235 243 251 251 257 258 241 209 225 210 232 237 149 228 227 164 188 214 227 230 235 241 243 243 243 241 238 234 234 237 238 234 232 233
219 217 234 234 234 237 243 247 252 266 272 253 230 224 218 244 181 244 245 172 198 209 215 220 227 234 236 236 238 241 240 237 236 239 241 240 235 233
217 215 222 236 238 239 238 241 242 251 262 264 253 201 205 247 218 244 242 236 208 191 202 217 226 231 234 232 233 236 239 237 237 241 243 242 238 235
217 221 225 223 224 244 244 246 245 249 255 261 259 230 211 224 228 252 254 247 251 176 193 212 221 225 230 230 231 232 234 234 235 239 242 243 241 236
220 225 228 230 230 235 241 244 239 234 245 248 248 244 232 219 223 238 250 260 258 198 192 204 213 220 226 227 227 228 230 232 234 236 240 242 246 243
226 230 232 231 232 234 239 242 245 245 238 245 243 236 234 218 234 239 238 230 251 252 226 219 208 213 221 222 221 221 223 228 232 235 237 239 242 240
228 229 229 228 242 247 258 250 243 245 243 243 244 245 240 229 237 245 252 253 246 250 250 239 221 223 214 216 216 214 219 224 229 233 236 237 239 239
232 231 225 211 211 219 244 257 265 253 255 256 252 252 249 246 247 256 258 258 258 235 257 258 249 247 240 232 187 194 211 220 226 231 233 235 237 239
235 233 237 219 213 223 216 222 233 242 248 258 264 264 258 254 255 253 257 266 274 269 265 266 254 255 249 211 167 192 208 219 226 231 234 235 237 238
232 229 233 231 225 234 234 232 234 229 228 234 250 259 262 269 258 259 267 258 255 246 245 264 264 263 258 228 175 194 209 219 225 229 233 234 235 236
234 229 229 228 206 220 238 240 242 241 226 227 249 257 274 267 265 258 249 249 253 241 223 255 266 265 256 237 191 192 206 216 223 226 230 234 234 236
233 228 219 231 206 204 236 242 244 246 249 229 225 228 232 227 221 239 251 255 261 257 223 248 266 269 263 243 234 207 212 215 220 223 224 226 224 235
245 234 218 186 207 218 238 247 250 258 250 245 238 232 227 226 221 222 237 253 261 262 246 242 265 267 266 270 260 245 242 237 223 222 218 217 215 229
256 254 219 177 209 226 234 243 243 245 246 246 243 240 237 234 230 230 232 242 255 265 275 265 263 269 272 271 268 259 250 248 249 248 236 203 214 223
263 270 252 206 220 225 225 227 226 233 239 242 243 245 247 246 243 234 230 234 241 246 247 245 250 256 260 266 272 271 269 258 249 253 251 239 235 226
254 242 216 217 232 244 223 217 227 235 240 244 246 246 246 239 236 236 236 234 239 236 226 229 238 248 254 260 265 268 268 267 259 256 257 255 250 244
262 251 238 226 226 227 228 226 227 227 230 237 243 243 242 241 241 240 242 246 248 250 241 223 224 232 245 258 260 259 263 265 260 256 252 255 252 250
251 246 243 237 236 234 231 225 223 227 230 233 235 238 241 243 243 241 240 242 247 252 252 242 232 236 239 237 236 256 262 267 265 249 253 259 259 254
237 243 244 244 243 239 235 233 227 221 224 232 235 236 239 240 242 242 241 246 250 252 252 247 240 244 253 256 227 222 257 268 264 258 254 256 260 263
236 244 247 246 245 245 240 236 234 225 219 226 230 234 239 243 244 243 241 243 250 252 252 242 240 243 255 272 281 252 220 245 259 265 268 259 253 229
241 244 247 248 248 246 247 245 242 234 229 232 230 229 233 239 245 247 244 236 246 250 251 249 242 237 252 256 259 261 235 205 231 254 266 263 260 250
255 255 254 256 252 250 246 243 241 238 231 232 233 228 231 237 241 245 249 241 236 242 248 250 234 227 236 244 253 264 262 222 197 213 257 267 264 269
265 264 259 256 253 252 252 249 246 243 241 244 245 239 236 236 239 237 239 245 246 244 247 248 242 236 243 243 249 261 264 256 245 220 216 209 210 214